Regional Weather Roundup
Issued by NWS

Home | Current Version | Previous Version | Text Only | Print | Product List | Glossary On
Versions: 1 2 3 4 5 6 7 8 9 10 11 12 13 14 15 16 17 18 19 20 21 22 23 24 25 26 27 28 29 30 31 32 33 34 35 36 37 38 39 40 41 42 43 44 45 46 47 48 49 50
000
ASHW40 PHFO 051110
RWRHI

WEATHER ROUNDUP FOR HAWAII
NATIONAL WEATHER SERVICE HONOLULU HI
100 AM HST SAT SEP 05 2015

THIS IS AN AUTOMATED REPORT THAT HAS NOT BEEN QUALITY CONTROLLED.

NOTE..."FAIR" INDICATES FEW OR NO CLOUDS BELOW 12,000 FEET WITH NO
SIGNIFICANT WEATHER AND/OR OBSTRUCTIONS TO VISIBILITY.

* - THESE SITES REPORT LIMITED FIELDS

HIZ001>004-051200-
KAUAI-NIIHAU-

CITY           SKY/WX    TMP DP  RH WIND       PRES   REMARKS
LIHUE APT      MOCLDY    80  73  79 E9        29.86F
PORT ALLEN*    NOT AVBL
POIPU*           N/A     81 N/A N/A NE6G12      N/A
PRINCEVILLE*     N/A     75 N/A N/A MISG        N/A
KOKOLE POINT*  NOT AVBL
MOLOAA DAIRY*    N/A     77  72  83 SE5G13      N/A
WAIMEA HTS*    NOT AVBL
PUU OPAE*      NOT AVBL
PUU LUA*       NOT AVBL
MAKAHA RIDGE*  NOT AVBL
$$

HIZ005>011-051200-
OAHU-

CITY           SKY/WX    TMP DP  RH WIND       PRES   REMARKS
HONOLULU       PTCLDY    80  72  76 E6        29.84F
KALAELOA       CLEAR     75  71  87 CALM      29.86F
KANEOHE MCB    PTCLDY    79  71  76 E5        29.83F
WHEELER FIELD  FAIR      71  70  94 NW1       29.86F
BELLOWS*       NOT AVBL
KAHUKU*        NOT AVBL
WHEELER*       NOT AVBL
WAIANAE HARBOR NOT AVBL
DILLINGHAM*      N/A     72  70  94 MISG        N/A
KAHUKU TRN*      N/A     75  70  83 E5G12       N/A
KAWAILOA*        N/A     73  68  83 E7G15       N/A
KII*             N/A     81  73  78 E10         N/A
MAKUA RANGE*     N/A     75  70  83 E6          N/A
OAHU FOREST NW NOT AVBL
SCHOFIELD BRK*   N/A     70  68  94 MISG        N/A
SCHOFIELD S*   NOT AVBL
WAIANAE VLY*   NOT AVBL
KUAOKALA*      NOT AVBL
HONOULIUULI*   NOT AVBL
MOKUOLOE IS*   NOT AVBL
PALEHUA*       NOT AVBL
WAIAWA PHB*    NOT AVBL
$$

HIZ012>013-051200-
MOLOKAI-

CITY           SKY/WX    TMP DP  RH WIND       PRES   REMARKS
MOLOKAI AIRPT  CLEAR     77  69  76 NE7       29.87F
KALAUPAPA      NOT AVBL
MAKAPULAPAI*   NOT AVBL
MOLOKAI 1*     NOT AVBL
PUU ALII*      NOT AVBL
$$

HIZ016-051200-
KAHOOLAWE-

CITY           SKY/WX    TMP DP  RH WIND       PRES   REMARKS
KAHOOLAWE*     NOT AVBL
HAKIOAWA*      NOT AVBL
HONOKANAIA*      N/A     79  72  79 NE5G12    29.81S
KANELOA*         N/A     79  72  78 NE12G18   29.94F
KEALIALALO*    NOT AVBL
LUA MAKIKA*    NOT AVBL
$$

HIZ014>015-051200-
LANAI-

CITY           SKY/WX    TMP DP  RH WIND       PRES   REMARKS
LANAI CITY     MOCLDY    72  67  84 NE8       29.91F
LANAI 1*       NOT AVBL
$$

HIZ017>028-051200-
MAUI-

CITY           SKY/WX    TMP DP  RH WIND       PRES   REMARKS
KAHULUI        CLEAR     77  69  76 CALM      29.86F
KAPALUA-W MAUI NOT AVBL
HANA AIRPORT   CLOUDY    73  73 100 S2        29.88F
HANA*          NOT AVBL
HALEAKALA SUMM   N/A     46  41  81 N7          N/A
MAALAEA BAY*   NOT AVBL
HALEAKALA*     NOT AVBL
KAUPO GAP*     NOT AVBL
KULA 1*          N/A     56  42  59 SE6         N/A
$$

HIZ023>026-051200-
BIG ISLAND OF HAWAII COAST AND LOWER SLOPES-

CITY           SKY/WX    TMP DP  RH WIND       PRES   REMARKS
KAILUA KONA    PTCLDY    81  73  76 E6        29.82F
HILO           PTCLDY    74  71  91 SW5       29.85F
HONOKAA*       NOT AVBL
KAWAIHAE MWT*  NOT AVBL
KAWAIHAE*        N/A     82 N/A N/A N1          N/A
SOUTH POINT*   NOT AVBL
UPOLU AIRPORT* NOT AVBL
KAMUELA*       NOT AVBL
HAKALAU*         N/A     48  45  87 W3          N/A
KALOKO-HONOKO* NOT AVBL
PALI 2*          N/A     68  64  88 VRB5G10     N/A
KEALAKOMO*       N/A     66  52  59 VRB15G22    N/A
KAUPULEHU*     NOT AVBL
KAPAPALA*        N/A     70  70  99 N1          N/A
LOWER KAHUKU*  NOT AVBL
PUHE CS*       NOT AVBL
PUHO CS*       NOT AVBL
PTA KEAMUKU*     N/A     63  55  77 CALM        N/A
WAIKOLOA*      NOT AVBL
$$

HIZ027>028-051200-
BIG ISLAND OF HAWAII INTERIOR AND SUMMMITS-

CITY           SKY/WX    TMP DP  RH WIND       PRES   REMARKS
BRADSHAW FIELD CLOUDY    53  52  99 SE3       30.21F
MK VISITOR CEN   N/A     50  41  71 N3          N/A
MAUNA KEA*       N/A     37  27  65 CALM        N/A
MAUNA LOA*       N/A     43  34  70 MISG        N/A
MAUNA LOA 1*   NOT AVBL
PTA KIPUKA*      N/A     54  52  94 SE3         N/A
PTA RANGE 17*    N/A     55  54  94 SE3         N/A
PTA WEST*        N/A     57  55  94 SE9         N/A
NENE CABIN*    NOT AVBL
AHUMOA*        NOT AVBL
PTA PORTABLE*  NOT AVBL
PUU MALI*        N/A     57  43  58 S7          N/A
$$

HIC003-051200-
NORTHWEST ISLANDS-

CITY           SKY/WX    TMP DP  RH WIND       PRES   REMARKS
MIDWAY ISLAND  CLOUDY    79  73  83 E15       29.93S
MIDWAY NOS*    NOT AVBL
FRENCH FRIGATE NOT AVBL
$$

PHZ110>124-180-051200-
BUOY REPORTS

STATION/POSITION TIME  TEMP    WIND        PRES    WAVE   SWELL
                       AIR SEA DIR/SP/G            HT/PER HT/DIR
                 (UTC) (F)     (DEG/KT/KT) (MB)    (FT/S) (FT/D)
BUOY 51001       1048   80 83  120/  6/ 10 1010.5    8/14   8/100
BUOY 51101       1100   81 83  130/  4/  6 1010.0F  10/14  10/ 90
BUOY 51100       NOT AVBL
BUOY 51002       1100   83 84  120/  8/ 10 1010.2F  10/13  10/ 80
BUOY 51003       1100   83 85  120/  4/  6 1010.3F   8/14   8/ 90
BUOY 51004       1042   81 83  350/ 10/ 12 1008.9F  11/13  11/ 70
BARBERS PT BUOY  NOT AVBL
WAIMEA BAY BUOY  1100      83                N/A     4/14   3/ 50
KAILUA BAY BUOY  1100      83                N/A     8/15   7/ 90
LANAI BUOY       NOT AVBL
BARBERS PT 2     1100      83                N/A     4/18   3/180
PAUWELA MAUI     1100      82                N/A     9/13   7/ 90
HILO             NOT AVBL
KANEOHE BAY BUOY 1100      82                N/A     5/14   3/ 70
HANALEI KAUAI    1100      84                N/A     9/13   7/ 90
KAHULUI HARBOR   1100   80 83  350/  3/  4 1011.2F
HONOLULU HARBOR  1100   80 83     CALM     1011.0F
KILO NALU        NOT AVBL
HILO HARBOR      1100   76 81  210/  2/  3 1010.4F
MOKUOLOE         1100   80 85   90/  5/  7 1011.3F
NAWILIWILI       1100   81 84   90/  8/ 11 1010.9F
WHOTS BUOY       NOT AVBL
BUOY 51028       NOT AVBL
$$

......................KEY........................................
  SKY/WX - SKY CONDITIONS/PRESENT WEATHER
  TMP    - TEMPERATURE IN FAHRENHEIT
  DWPT   - DEWPOINT IN FAHRENHEIT
  RH     - RELATIVE HUMIDITY IN PERCENT
  WIND   - DIRECTION AND SPEED /MPH FOR ISLANDS...KTS FOR BUOYS/
  PRES   - MEAN SEA LEVEL PRESSURE IN INCHES OF HG
  VSB    - VISIBILITY IN MILES
  HX     - HEAT INDEX
  WCI    - WIND CHILL INDEX
  VRB    - VARIABLE WIND DIRECTION
  N/A    - NOT AVAILABLE



USA.gov is the U.S. government's official web portal to all federal, state and local government web resources and services.